| Station | Date | Time | Temp (°F) | RH (%) | Dew Pt (°F) | Wind Spd (mph) | Wind Dir (°) | Wind Gust (mph) | Latest Rain (In) | Daily Rain (In) | Daily Min Temp (°F) | Daily Max Temp (°F) |
|---|---|---|---|---|---|---|---|---|---|---|---|---|
| Rockpile Upper (Cooley) | 9/5/26 | 1315 | 73.1 6.3 | 35 7 | 43.9 0.9 | 9.8 6.1 | S | 173 | 19.7 8.6 | 0.00 | 0.00 | 48.8 1.4 | 75.0 6.8 |
| Rockpile Lower (Cooley) | 9/5/26 | 1300 | 76.3 7.2 | 33 5 | 45.1 2.7 | 2.9 2.9 | S | 181 | 7.1 4.7 | 0.00 | 0.00 | 51.9 1.5 | 77.5 7.4 |
| Cloverdale-East (Ranch 83) | 9/5/26 | 1315 | 79.8 4.6 | - | - | 5.0 2.2 | SSE | 150 | 15.8 8.1 | 0.00 | 0.00 | 50.6 7.1 | 80.4 4.5 |
| Cloverdale-SE (Ranch 38) | 9/5/26 | 1315 | 75.6 3.6 | 39 1 | 49.0 2.7 | 8.4 2.5 | SSE | 161 | 16.2 1.5 | 0.00 | 0.00 | 52.8 2.5 | 77.0 3.4 |
| Geyserville-North (Hoffman) | 9/5/26 | 1315 | 78.8 3.1 | 39 3 | 51.9 5.1 | 3.9 1.0 | ESE | 122 | 8.7 2.1 | 0.00 | 0.00 | 44.2 1.3 | 79.6 3.1 |
| Geyserville (Ranch 3) | 9/5/26 | 1315 | 78.5 3.5 | 34 2 | 47.6 4.3 | 4.6 0.3 | ESE | 107 | 10.6 0.3 | 0.00 | 0.00 | 44.7 2.2 | 78.8 3.5 |
| Geyserville-East (Ranch 40) | 9/5/26 | 1315 | 76.0 3.3 | 41 5 | 50.9 6.2 | 6.6 0.1 | S | 180 | 14.7 0.8 | 0.00 | 0.00 | 50.2 0.1 | 77.8 3.2 |
| Geyserville-South (Nervo Station) | 9/5/26 | 1315 | 77.4 2.0 | - | - | 4.7 2.1 | SSE | 160 | 8.8 2.3 | 0.00 | 0.00 | 48.5 0.1 | 78.4 2.1 |
| Peterson (Ranch 09) | 9/5/26 | 1315 | 76.8 3.0 | 36 6 | 47.4 7.3 | 3.7 1.9 | S | 190 | 9.8 1.1 | 0.00 | 0.00 | 42.5 2.0 | 77.4 3.0 |
| Crazy Creek Ranch | 9/5/26 | 1315 | 77.6 2.1 | 42 6 | 52.7 5.7 | 3.2 0.2 | S | 180 | 8.3 1.5 | 0.00 | 0.00 | 44.1 2.4 | 77.7 1.9 |
| Whitton Ranch (201e) | 9/5/26 | 1315 | 80.3 4.6 | 33 4 | 48.8 7.5 | 3.7 1.4 | SSW | 194 | 10.4 0.6 | 0.00 | 0.00 | 40.4 2.0 | 80.6 3.4 |
| Lytton East (Shop Hill Bottom) | 9/5/26 | 1315 | 78.0 2.5 | 33 2 | 46.6 3.9 | 5.1 0.5 | S | 188 | 11.6 0.2 | 0.00 | 0.00 | 44.8 0.6 | 78.5 2.1 |
| Lytton East (Hill 5) | 9/5/26 | 1315 | 78.0 3.0 | 34 2 | 47.6 4.3 | 6.3 0.6 | S | 175 | 11.4 3.5 | 0.00 | 0.00 | 47.2 0.4 | 78.9 3.3 |
| Lytton West Lower (Lew 6) | 9/5/26 | 1315 | 77.4 3.0 | 34 2 | 46.9 4.3 | 6.2 1.9 | S | 170 | 12.1 1.5 | 0.00 | 0.00 | 45.1 0.5 | 77.9 3.0 |
| Lytton West Hill (23PS) | 9/5/26 | 1315 | 76.5 1.8 | 36 3 | 47.5 3.6 | 4.8 0.3 | S | 178 | 10.2 0.0 | 0.00 | 0.00 | 48.6 0.2 | 77.3 2.2 |
| Big River | 9/5/26 | 1315 | 75.8 2.4 | 41 2 | 50.2 3.4 | 5.0 1.5 | S | 188 | 11.0 0.8 | 0.00 | 0.00 | 48.0 0.0 | 76.5 2.5 |
| Jimtown-North (Piccolo Ranch 15) | 9/5/26 | 1315 | 77.5 2.6 | 33 5 | 46.0 6.9 | 3.9 0.0 | SW | 216 | 9.4 4.6 | 0.00 | 0.00 | 42.7 4.1 | 78.0 1.5 |
| HWY 128/Chalk Hill Rd (Landslide) | 9/5/26 | 1300 | 78.7 3.2 | 35 5 | 48.9 1.0 | 4.2 1.7 | SW | 235 | 11.5 4.8 | 0.00 | 0.00 | 43.8 4.1 | 79.0 3.1 |
| N Chalk Hill Rd (Ranch 63) | 9/5/26 | 1315 | 77.5 3.0 | 34 4 | 46.7 0.1 | 4.6 1.2 | S | 188 | 9.6 2.3 | 0.00 | 0.00 | 41.5 5.4 | 78.2 2.9 |
| Newman Knights Valley | 8/18/26 | 0015 | 56.2 1.8 | 85 4 | 51.7 0.4 | 0.8 3.5 | NE | 55 | 2.3 5.8 | 0.00 | 0.00 | 55.0 1.2 | 88.3 0.6 |
| Knights Valley (Bavarian Lion) | 9/5/26 | 1315 | 77.6 5.2 | 34 7 | 47.2 0.4 | 4.1 0.6 | W | 273 | 10.1 0.6 | 0.00 | 0.00 | 41.1 6.6 | 78.4 5.3 |
| Red Tail | 9/5/26 | 1315 | 77.6 2.9 | 42 3 | 52.6 1.0 | 6.7 4.3 | SSW | 203 | 13.3 5.7 | 0.00 | 0.00 | 45.1 0.5 | 78.6 3.4 |
| Franz Valley (Stornetta) | 9/5/26 | 1315 | 77.0 5.0 | 35 10 | 47.4 2.2 | 3.2 0.5 | SSE | 153 | 12.7 6.4 | 0.00 | 0.00 | 41.8 6.3 | 77.5 5.2 |
| Upper Dry Creek Valley | 9/5/26 | 1315 | 79.3 4.1 | 32 2 | 46.9 1.9 | 4.5 0.2 | ESE | 116 | 10.3 0.5 | 0.00 | 0.00 | 44.9 0.6 | 79.8 4.0 |
| Lower Dry Creek Valley | 9/5/26 | 1315 | 77.7 2.6 | 34 2 | 47.0 3.5 | 4.0 0.3 | SE | 129 | 10.6 0.2 | 0.00 | 0.00 | 46.8 0.8 | 78.2 2.2 |
| Max | 80.3 | 42 | 52.7 | 9.8 | - | 19.7 | 0.00 | 0.00 | 52.8 | 80.6 | ||
| Avg | 77.4 | 36 | 48.1 | 5.0 | - | 11.4 | 0.00 | - | - | - | ||
| Min | 73.1 | 32 | 43.9 | 2.9 | - | 7.1 | 0.00 | 0.00 | 40.4 | 75.0 |
| Station | Date | Time | Temp (°F) | RH (%) | Dew Pt (°F) | Wind Spd (mph) | Wind Dir (°) | Wind Gust (mph) | Latest Rain (In) | Daily Rain (In) | Daily Max Temp (°F) | Daily Min Temp (°F) |
|---|---|---|---|---|---|---|---|---|---|---|---|---|
| Windsor-NW (Ranch 8) | 9/5/26 | 1315 | 78.1 4.2 | 39 4 | 51.3 1.1 | 0.0 0.0 | SW | 227 | 0.0 0.0 | 0.00 | 0.00 | 79.2 1.4 | 50.8 2.5 |
| Windsor-East (Ranch 16) | 9/5/26 | 1315 | 76.6 3.7 | 36 5 | 48.1 0.1 | 5.5 1.5 | S | 188 | 10.6 2.2 | 0.00 | 0.00 | 77.3 4.0 | 44.1 5.3 |
| Mark West-North (Ranch 14) | 9/5/26 | 1315 | 78.6 3.6 | 33 5 | 47.0 0.5 | 2.6 1.3 | S | 169 | 7.4 1.9 | 0.00 | 0.00 | 79.7 3.8 | 45.2 5.5 |
| Windsor-SE (Silk Rd) | 9/5/26 | 1315 | 76.4 3.3 | 39 4 | 49.8 0.6 | 4.2 0.0 | SW | 225 | 8.0 1.4 | 0.00 | 0.00 | 77.2 3.8 | 46.5 3.4 |
| Fulton-NW (Ranch 5) | 9/5/26 | 1315 | 76.6 2.5 | 37 6 | 48.4 1.6 | 5.1 2.1 | SSE | 153 | 10.6 2.9 | 0.00 | 0.00 | 77.4 2.7 | 44.8 5.2 |
| Bisordi (Fulton) | 9/5/26 | 1315 | 76.5 3.8 | 44 6 | 53.0 0.2 | 3.0 0.7 | S | 173 | 8.8 2.5 | 0.00 | 0.00 | 77.1 4.0 | 43.4 5.7 |
| Windsor-South (Laughlin Rd) | 9/5/26 | 1315 | 77.6 4.2 | 38 6 | 49.9 0.0 | - | - | - | 0.00 | 0.00 | 78.3 4.1 | 47.7 3.9 |
| Fulton-SE (Barnes Rd) | 9/5/26 | 1315 | 76.4 2.2 | 39 4 | 50.0 0.5 | 3.5 3.5 | SSE | 148 | 9.1 9.1 | 0.00 | 0.00 | 76.6 2.3 | 46.3 6.0 |
| Fulton-SW (Ranch 21) | 9/5/26 | 1315 | 77.0 3.5 | 39 3 | 50.0 1.2 | 3.8 2.0 | SSW | 204 | 8.6 1.6 | 0.00 | 0.00 | 77.7 3.5 | 47.5 2.4 |
| NW Santa Rosa (Piner Road) | 9/5/26 | 1315 | 75.7 2.6 | 47 1 | 53.9 1.7 | 2.6 0.4 | S | 182 | 7.9 0.1 | 0.00 | 0.00 | 76.8 2.9 | 46.5 3.1 |
| River Rd South (Denner Ranch) | 9/5/26 | 1315 | 76.9 3.0 | 37 7 | 48.5 1.9 | 5.0 1.8 | S | 175 | 11.8 5.3 | - | - | 77.8 2.9 | 44.9 4.4 |
| West Santa Rosa (LOV Vineyard) | 8/26/26 | 0900 | 53.3 5.2 | 97 6 | 52.4 3.5 | 1.0 0.1 | SW | 224 | 3.6 0.0 | 0.00 | 0.00 | 53.6 5.2 | 50.2 1.8 |
| Guerneville Rd (Prokopakis) | 9/5/26 | 1315 | 83.7 8.3 | 30 13 | 49.2 2.1 | - | - | - | 0.00 | 0.00 | 84.0 7.9 | 45.0 5.2 |
| SunnyView Vineyard (SCWC) | 9/5/26 | 1315 | 77.8 4.7 | 38 3 | 50.4 2.3 | 2.7 0.5 | S | 173 | 9.2 0.3 | 0.00 | 0.00 | 78.2 3.8 | 45.0 3.6 |
| Guerneville Rd West (Balletto) | 9/5/26 | 1315 | 76.8 4.8 | 43 8 | 52.6 0.3 | 4.2 1.6 | SW | 229 | 9.0 0.8 | 0.00 | 0.00 | 77.3 4.0 | 45.8 4.2 |
| Sanchietti Ranch | 9/5/26 | 1315 | 78.2 3.9 | 46 10 | 55.9 1.8 | 4.9 0.4 | SW | 217 | 12.9 2.6 | 0.00 | 0.00 | 78.2 3.5 | 46.8 2.5 |
| Occidental Rd (Sebastopol) | 9/5/26 | 1315 | 78.3 4.4 | 54 15 | 60.6 2.7 | 3.5 0.8 | SW | 236 | 11.6 0.2 | 0.00 | 0.00 | 79.1 4.1 | 45.8 2.9 |
| Harper's Rest (Windsor-West) | 9/5/26 | 1315 | 77.5 3.5 | 36 6 | 48.5 0.9 | 3.2 0.7 | ESE | 106 | 6.8 0.8 | 0.00 | 0.00 | 77.7 2.6 | 46.8 2.4 |
| Lower Westside Rd (Ranch 12) | 9/5/26 | 1315 | 77.7 6.3 | 36 10 | 49.0 0.5 | 3.4 1.6 | S | 175 | 7.1 1.5 | 0.00 | 0.00 | 78.5 4.8 | 45.1 4.7 |
| Guerneville (Laughlin Rd) | 9/5/26 | 1315 | 77.7 4.7 | 42 10 | 52.9 1.4 | 5.9 0.2 | SSE | 164 | 10.7 2.3 | 0.00 | 0.00 | 78.5 4.5 | 48.9 2.7 |
| Korbel (Winery) | 9/5/26 | 1315 | 77.8 5.0 | 42 3 | 53.1 2.5 | 4.4 0.6 | WNW | 293 | 11.5 0.4 | 0.00 | 0.00 | 78.4 4.1 | 50.3 2.6 |
| Forestville (Shone Farms) | 9/5/26 | 1315 | 76.3 5.0 | 38 11 | 48.7 2.6 | 2.6 0.8 | SSE | 156 | 8.4 3.7 | 0.00 | 0.00 | 78.1 4.2 | 46.9 1.2 |
| Forestville-NE (Ranch 30) | 9/5/26 | 1315 | 77.5 5.7 | 41 11 | 51.8 1.1 | 4.3 2.3 | SSE | 151 | 9.5 4.4 | 0.00 | 0.01 | 79.5 3.1 | 48.5 0.4 |
| Foggy Bend (Ranch 41) | 9/5/26 | 1315 | 77.3 5.7 | 47 10 | 55.3 0.1 | 2.5 0.4 | SSE | 157 | 6.9 0.7 | 0.00 | 0.00 | 78.1 3.6 | 48.5 2.6 |
| Last Stop | 9/5/26 | 1315 | 79.6 3.0 | 39 8 | 52.4 2.5 | 3.9 0.1 | SE | 140 | 9.9 0.2 | 0.00 | 0.00 | 79.7 3.0 | 44.3 3.5 |
| Green Valley Vineyard | 9/5/26 | 1315 | 75.5 4.9 | 43 9 | 51.4 0.7 | 4.1 1.1 | SSE | 164 | 8.6 0.2 | 0.00 | 0.00 | 77.1 5.6 | 46.2 2.8 |
| Park Royal | 9/5/26 | 1315 | 77.3 3.8 | 36 4 | 48.6 0.4 | - | - | - | 0.00 | 0.00 | 77.5 3.5 | 47.3 2.0 |
| Merino | 9/5/26 | 1315 | 78.2 4.1 | 43 9 | 53.7 1.3 | 3.6 0.6 | SSE | 156 | 10.1 0.9 | 0.00 | 0.00 | 78.7 3.5 | 43.9 4.7 |
| Green Valley (Sanchietti) | 9/5/26 | 1315 | 78.3 4.3 | - | - | - | - | - | - | - | 78.9 3.6 | 41.4 4.8 |
| Keefer Ranch (Green Valley) | 9/5/26 | 1315 | 75.9 3.8 | 46 9 | 53.4 1.5 | - | - | - | 0.00 | 0.00 | 76.3 4.2 | 43.5 3.7 |
| Graton-West (Dutton Ranch) | 9/5/26 | 1315 | 77.1 4.0 | 42 15 | 52.0 4.6 | 4.0 0.1 | S | 174 | 9.5 0.1 | 0.00 | 0.00 | 78.3 4.2 | 43.9 4.2 |
| Graton-South (Mill Station Rd) | 9/5/26 | 1315 | 74.2 3.5 | 44 9 | 50.7 2.0 | 2.9 0.3 | SW | 222 | 6.8 0.7 | 0.00 | 0.00 | 74.9 3.5 | 42.0 4.9 |
| Occidental (Horseshoe Bend) | 9/5/26 | 1315 | 71.5 2.5 | 51 6 | 52.4 0.5 | - | - | - | 0.00 | 0.00 | 72.5 3.0 | 51.2 0.2 |
| Sexton Valley (Jacqueline's Blk) | 9/5/26 | 1315 | 75.0 2.6 | 50 5 | 55.0 0.2 | 2.8 0.2 | SW | 218 | 8.0 1.0 | 0.01 | 0.01 | 76.0 3.0 | 42.6 5.0 |
| Sebastopol Hills (Burnside Rd) | 9/5/26 | 1315 | 72.1 3.4 | 51 8 | 53.2 0.9 | 5.4 0.3 | SW | 230 | 10.0 1.0 | 0.00 | 0.00 | 73.0 3.5 | 49.8 1.1 |
| Pleasant Hill | 9/5/26 | 1315 | 77.5 5.3 | 40 11 | 51.3 2.0 | 4.4 0.4 | SW | 224 | 11.5 0.7 | 0.00 | 0.00 | 78.0 3.5 | 46.3 2.2 |
| Seaview/Fort Ross (Hirsch) | 9/5/26 | 1315 | 62.8 0.6 | 69 6 | 52.3 1.9 | 3.9 0.8 | WSW | 246 | 9.6 0.7 | 0.00 | 0.00 | 65.4 0.9 | 50.6 1.5 |
| Max | 83.7 | 69 | 60.6 | 5.9 | - | 12.9 | 0.01 | 0.01 | 84.0 | 51.2 | ||
| Avg | 76.6 | 42 | 51.6 | 3.7 | - | 9.0 | 0.00 | - | - | - | ||
| Min | 62.8 | 30 | 47.0 | 0.0 | - | 0.0 | 0.00 | 0.00 | 65.4 | 41.4 |
| Station | Date | Time | Temp (°F) | RH (%) | Dew Pt (°F) | Wind Spd (mph) | Wind Dir (°) | Wind Gust (mph) | Latest Rain (In) | Daily Rain (In) | Daily Min Temp (°F) | Daily Max Temp (°F) |
|---|---|---|---|---|---|---|---|---|---|---|---|---|
| Upper Rincon Valley | 9/5/26 | 1300 | 73.7 4.3 | 42 8 | 49.3 0.6 | 3.6 0.8 | S | 184 | 9.5 2.2 | 0.00 | 0.00 | 49.0 0.2 | 75.2 5.5 |
| Lower Bennett Valley | 9/5/26 | 1315 | 76.6 5.1 | 38 7 | 48.8 0.2 | 4.9 0.3 | SSW | 193 | 8.7 3.1 | 0.00 | 0.00 | 40.9 6.6 | 77.3 4.0 |
| Kenwood (Wildwood) | 9/5/26 | 1315 | 78.1 6.3 | 39 2 | 51.4 4.2 | 4.8 1.5 | SSW | 206 | 10.5 1.5 | 0.00 | 0.00 | 45.0 7.6 | 78.9 6.6 |
| Crane Creek (Ranch 62) | 9/5/26 | 1315 | 76.2 3.2 | 36 6 | 47.1 1.4 | 2.9 1.4 | S | 186 | 7.8 3.3 | 0.00 | 0.00 | 47.4 6.2 | 76.8 2.6 |
| Rohnert Park-West (Stony Point) | 9/5/26 | 1315 | 77.0 5.7 | 44 11 | 53.6 0.9 | 5.8 1.6 | WSW | 246 | 13.1 0.2 | 0.00 | 0.00 | 44.0 6.0 | 77.4 4.1 |
| Rice-Spivak Vineyard | 9/5/26 | 1315 | 77.2 3.9 | - | - | - | - | - | - | - | 39.7 8.4 | 78.5 4.2 |
| Cartograph Wines Base | 9/5/26 | 1315 | 74.4 3.4 | 48 12 | 53.3 3.0 | 5.9 0.6 | SSW | 209 | 13.2 1.9 | 0.00 | 0.00 | 48.6 1.5 | 75.5 3.7 |
| Cartograph Wines Remote | 9/5/26 | 1315 | 74.9 4.7 | - | - | - | - | - | - | - | 45.7 3.6 | 76.8 3.7 |
| Penngrove (Asellus) | 9/5/26 | 1315 | 78.1 5.0 | 31 8 | 45.3 1.3 | 4.4 0.8 | SSE | 155 | 9.2 0.4 | 0.00 | 0.00 | 44.4 7.9 | 78.8 4.8 |
| Sonoma Valley (Bedrock) | 9/5/26 | 1300 | 76.0 4.9 | 36 5 | 47.5 1.2 | - | - | - | 0.00 | 0.00 | 44.4 4.3 | 76.7 4.6 |
| Sonoma-West (Arnold) | 9/5/26 | 1315 | 79.0 4.3 | 30 8 | 45.0 2.6 | 4.2 1.1 | S | 187 | 8.6 4.2 | 0.00 | 0.00 | 44.2 4.6 | 79.6 4.8 |
| Sonoma Valley HS | 9/5/26 | 1315 | 76.1 4.0 | 47 3 | 54.4 2.1 | 3.7 1.3 | S | 190 | 8.3 1.1 | 0.00 | 0.00 | 46.3 5.3 | 76.9 4.1 |
| Sonoma East (Bundschu01) | 9/5/26 | 1315 | 77.6 4.8 | 40 3 | 51.4 2.6 | 3.9 0.2 | SSW | 202 | 9.6 1.3 | 0.00 | 0.00 | 43.5 5.9 | 78.7 5.0 |
| Sonoma-SE (Napoli) | 9/5/26 | 1315 | 78.3 4.6 | 38 3 | 50.5 1.9 | 3.6 0.2 | SSW | 208 | 9.1 0.0 | 0.00 | 0.00 | 43.4 8.9 | 78.8 4.3 |
| Schellville (Sasaki) | 2/7/26 | 1900 | 53.4 2.2 | 88 10 | 49.9 1.0 | 3.3 1.8 | SW | 225 | 5.8 4.0 | 0.00 | 0.00 | 47.0 0.8 | 62.8 8.4 |
| Petaluma (Ranch 10) | 9/5/26 | 1315 | 78.0 4.7 | 35 9 | 48.4 1.8 | 2.2 0.5 | W | 281 | 7.5 1.0 | 0.00 | 0.00 | 45.4 9.5 | 78.5 4.3 |
| Carneros (Ranch 71) | 9/5/26 | 1315 | 75.2 4.0 | 44 1 | 51.7 3.0 | 3.1 1.5 | S | 185 | 8.6 2.5 | 0.00 | 0.00 | 52.1 1.8 | 75.8 3.6 |
| Ricci Vineyards (Carneros) | 9/5/26 | 1315 | 79.4 5.4 | 37 2 | 51.1 3.3 | 4.8 0.6 | S | 183 | 11.1 0.9 | 0.00 | 0.00 | 44.5 9.1 | 79.8 4.7 |
| Carneros Upper (Ranch 81) | 9/5/26 | 1315 | 76.6 4.8 | 40 2 | 50.8 3.3 | 5.6 1.9 | S | 177 | 13.0 1.3 | - | - | 52.3 1.1 | 77.0 4.6 |
| Carneros Lower (Ranch 81) | 9/5/26 | 1315 | 77.5 2.5 | 44 1 | 53.9 2.8 | 3.9 1.5 | S | 171 | 9.3 1.3 | 0.00 | 0.00 | 45.3 7.1 | 79.5 3.5 |
| Max | 79.4 | 48 | 54.4 | 5.9 | - | 13.2 | 0.00 | 0.00 | 52.3 | 79.8 | ||
| Avg | 76.8 | 39 | 50.2 | 4.2 | - | 9.8 | 0.00 | - | - | - | ||
| Min | 73.7 | 30 | 45.0 | 2.2 | - | 7.5 | 0.00 | 0.00 | 39.7 | 75.2 |